Torna al catalogo

STARLINK-37072

AttivoComunicazioniSSO
NORAD 68153·PAYLOAD·🇺🇸 United States

Lanciato Mar 13, 2026 da Vandenberg Space Force Base

Loading…

Prossimi Passaggi (prossime 24 ore)

TLE

AggiornatoSource: CelesTrak SupGP

Epoca: Sep 15, 2026, 04:18 UTC

1 68153C 26049M   26258.17965278 -.00054004  00000+0 -16756-2 0  2581
2 68153  97.2836 278.2249 0001184  98.9485   5.2811 15.33482943    11

Traccia STARLINK-37072 in tempo reale con AllMySat

Download on the App Store